Theta_e
290 289 290 290 291 292 292 293 293 294 295 295 298 303 307 308 309 308 308 304 304 302 301 299 294 291 290 290 290 289 287 287 283 280 282 282 282 283 283 284 283 282 282
289 289 288 289 289 290 290 291 293 294 295 296 296 299 305 307 307 305 303 301 301 298 296 294 290 291 290 290 290 288 287 286 284 280 280 280 281 282 282 282 281 281 280
288 288 288 289 289 289 290 291 292 293 294 295 296 297 303 306 306 304 303 300 300 297 295 294 291 291 289 290 289 287 285 285 284 282 279 280 280 280 279 279 279 279 279
287 287 287 288 289 289 290 291 292 294 294 294 295 296 300 304 304 303 300 299 298 297 296 295 292 292 290 289 288 285 283 283 283 282 279 278 279 278 279 278 277 277 277
286 287 287 288 290 290 290 291 292 293 294 295 294 297 301 302 301 297 297 296 293 292 292 292 292 292 290 290 287 284 284 283 282 280 278 278 278 277 277 277 276 276 276
286 286 287 289 291 294 291 291 291 292 293 293 295 300 301 299 296 296 295 293 291 290 288 288 287 286 287 288 288 288 287 284 281 280 278 278 277 278 277 276 275 274 274
285 286 287 287 288 290 291 291 291 292 293 292 292 295 292 293 294 294 292 291 289 289 287 286 286 286 287 287 288 289 288 289 286 282 280 278 277 278 277 275 275 274 274
284 285 285 285 286 287 288 288 289 291 290 290 289 289 290 292 292 291 290 289 288 287 287 288 287 286 286 286 285 283 283 283 282 281 280 279 278 279 279 278 277 275 273
283 284 284 285 285 285 285 286 287 287 287 287 288 289 289 290 291 291 289 288 287 286 286 287 287 286 287 288 284 282 281 281 285 285 284 284 284 284 280 276 271 271 269
283 283 284 285 285 285 285 284 285 286 286 287 287 288 288 288 291 290 288 287 285 285 286 285 286 286 288 288 284 282 280 279 280 279 280 284 284 283 284 276 275 270 269
284 284 284 284 284 285 285 285 285 285 286 286 286 286 287 288 289 290 290 288 286 286 285 284 285 288 288 286 284 281 281 280 281 278 277 275 273 273 274 277 277 276 268
285 284 284 284 284 285 285 285 285 285 285 285 285 285 285 287 288 290 289 289 289 286 284 283 284 287 287 287 283 284 284 281 277 276 274 273 273 273 273 274 274 275 274
285 284 285 285 285 285 285 285 284 285 284 284 284 283 283 284 287 289 289 288 287 284 283 284 286 286 287 286 286 285 281 278 275 273 273 273 274 275 274 273 273 273 274
284 284 284 283 284 285 285 285 285 285 284 284 283 282 282 282 283 283 284 283 283 283 284 283 284 284 284 281 279 280 277 277 276 275 275 276 275 275 275 275 274 274 273
284 284 284 283 283 284 284 284 284 284 286 285 284 284 283 281 282 284 283 281 281 281 280 279 278 277 277 276 277 277 275 274 276 278 277 277 277 276 276 273 272 272 270
283 282 282 283 283 283 283 283 286 286 286 286 286 284 284 285 286 286 285 285 285 283 276 275 276 276 276 274 270 268 268 269 269 270 270 272 272 271 272 269 270 268 269
278 278 279 278 278 279 280 281 280 283 286 287 287 286 286 287 287 287 287 286 284 279 273 271 271 271 270 272 269 268 268 268 268 273 273 274 275 275 274 270 270 268 268
272 273 274 274 275 276 276 276 277 278 277 277 284 286 286 286 286 286 286 284 277 278 276 277 276 276 276 273 274 275 274 274 273 271 270 269 269 270 268 268 267 267 269
272 271 271 272 272 272 273 274 274 275 275 273 276 280 281 286 285 284 282 275 278 278 278 278 276 274 273 272 271 269 267 264 260 260 260 260 259 259 260 261 262 263 263
266 269 269 269 269 271 271 272 272 270 270 273 274 274 275 280 276 274 274 275 274 274 274 272 269 267 266 264 258 256 256 255 255 255 255 255 255 256 256 256 255 256 255
266 264 266 267 267 266 267 269 270 275 275 276 276 272 274 274 272 269 267 266 268 268 266 263 258 255 253 253 253 253 252 252 252 252 252 251 251 251 251 251 250 250 250
268 266 265 265 264 266 266 268 275 275 274 271 269 272 271 264 262 260 259 256 254 254 253 256 254 252 251 251 250 250 250 250 249 249 249 249 248 248 247 247 247 247 246
268 267 269 266 264 265 272 273 272 270 267 262 259 260 260 258 258 256 254 252 254 254 251 253 252 250 248 248 248 249 251 251 250 248 249 248 248 248 246 247 246 246 246
268 273 273 268 262 266 268 266 264 262 260 258 258 257 257 256 255 253 252 251 253 250 248 248 248 248 248 248 247 246 246 247 247 249 249 249 248 248 245 245 248 251 251
266 267 266 266 264 263 262 261 260 259 258 258 256 255 253 254 254 252 250 249 248 249 248 248 247 248 248 249 251 253 252 255 252 252 251 253 253 252 253 252 253 252 250
269 265 264 263 262 262 262 261 258 258 257 255 255 254 254 253 251 250 248 249 249 249 249 248 249 251 251 250 250 256 260 263 261 259 260 258 256 255 252 254 254 254 253
Wind_Speed
17 16 17 16 16 16 16 16 15 16 15 15 13 15 15 14 16 17 15 18 14 17 15 17 14 12 8 8 6 5 5 4 5 2 3 1 6 8 6 5 5 5 4
16 17 20 18 17 17 17 17 16 14 15 13 15 12 14 14 15 16 15 15 18 14 17 17 15 12 13 12 9 8 5 4 6 5 3 2 3 5 5 7 5 4 5
17 15 17 17 17 18 19 18 17 17 17 16 14 14 13 13 15 15 14 16 18 17 15 19 19 18 14 11 10 9 7 4 4 6 4 2 2 3 3 2 3 3 3
15 16 16 17 18 18 18 17 17 17 15 16 16 16 15 13 15 15 15 15 14 13 13 16 18 20 19 16 12 11 9 7 6 7 4 3 3 2 3 3 3 3 4
16 15 15 16 18 17 17 16 15 15 14 14 14 14 17 14 11 14 14 14 15 12 10 11 15 17 23 19 13 13 12 6 5 4 4 3 3 3 5 3 3 2 3
15 15 14 14 14 13 13 14 13 14 13 12 13 17 16 11 19 21 16 13 13 16 14 11 10 18 20 24 21 20 15 10 5 4 3 3 4 3 3 3 3 3 2
13 12 11 10 8 6 8 11 12 12 12 8 7 12 11 13 24 23 22 13 14 13 15 15 12 10 17 15 19 17 11 11 9 7 7 4 4 6 6 4 4 3 3
11 11 9 8 8 9 10 8 8 9 11 10 9 10 13 12 24 24 21 14 12 12 13 16 16 17 15 15 13 10 7 6 7 5 5 5 3 6 6 5 5 3 2
11 10 10 8 8 9 9 10 9 12 9 10 10 12 14 14 25 27 20 14 14 15 12 11 13 15 21 21 13 11 8 5 6 9 8 8 9 10 9 5 2 3 3
10 10 9 7 8 10 9 9 8 11 10 9 11 11 15 15 22 23 18 12 13 11 12 12 14 13 22 19 11 10 8 5 6 4 4 4 7 8 13 4 6 4 3
10 9 9 9 9 9 10 9 10 11 12 13 14 11 13 12 14 19 20 12 12 11 10 9 7 21 20 17 12 6 4 7 7 5 4 2 1 1 1 4 7 5 4
10 10 10 10 7 7 11 11 11 11 14 14 14 13 10 11 13 18 23 20 17 12 9 7 9 18 17 15 9 11 12 8 4 3 2 2 1 1 2 3 5 5 3
11 11 10 11 10 9 10 11 10 9 10 10 10 11 9 6 9 24 25 22 19 11 7 13 18 16 14 10 11 11 7 4 3 2 2 3 3 4 3 3 4 4 5
11 11 10 11 11 10 8 7 7 7 8 10 10 9 8 8 9 9 9 11 16 11 14 9 10 10 10 7 5 4 3 3 4 3 2 2 2 2 3 3 2 3 4
9 9 10 9 10 11 11 8 9 10 9 8 7 6 8 9 7 11 11 8 8 12 11 6 5 4 5 4 4 4 3 2 2 2 2 2 3 3 3 3 3 3 6
9 8 7 7 8 9 10 12 25 22 22 20 16 11 8 16 19 20 21 22 21 13 5 4 3 4 4 3 3 2 1 1 1 1 2 2 2 1 4 2 3 4 5
7 6 5 6 6 6 7 7 10 14 24 21 17 17 16 16 17 19 20 19 14 9 5 4 4 4 3 3 3 3 2 1 2 2 1 3 4 5 4 3 3 3 4
5 6 4 3 4 5 5 5 5 7 6 5 14 13 16 17 17 18 18 14 7 9 5 6 5 4 3 2 3 3 4 4 4 3 2 2 2 3 2 2 2 3 4
4 3 3 4 4 4 4 5 5 6 6 5 4 13 11 21 19 16 13 6 7 5 5 5 5 5 5 5 5 4 4 3 2 3 2 2 2 3 3 3 2 4 4
3 5 4 3 3 4 4 5 6 6 6 6 6 3 2 5 6 5 6 6 6 5 6 6 6 5 5 5 4 3 3 3 2 2 2 3 3 2 2 2 3 2 2
3 3 4 4 4 3 3 5 5 6 6 6 5 3 7 7 6 6 6 6 5 5 6 6 5 5 4 3 3 3 3 2 2 3 3 2 2 3 2 1 2 2 2
3 4 3 4 3 4 4 4 6 7 6 6 6 9 15 7 7 6 6 5 4 5 4 5 4 3 3 3 3 3 3 3 2 2 2 1 1 2 2 3 3 2 2
4 5 5 3 4 5 6 5 6 6 6 6 4 6 6 6 6 5 5 4 4 4 3 4 4 3 1 1 1 3 4 1 3 3 1 3 3 3 2 2 2 3 2
5 6 6 5 3 4 5 6 6 8 7 5 6 5 6 5 6 6 4 4 4 4 3 3 3 3 2 1 1 1 2 3 2 1 2 1 3 2 2 2 3 4 4
5 5 5 5 5 6 7 6 6 6 5 6 6 5 4 5 6 5 4 3 3 3 3 2 2 2 2 4 5 6 5 5 3 4 3 3 5 5 4 4 4 3 4
6 6 6 5 5 5 6 7 6 6 7 5 5 5 5 6 4 4 3 3 2 2 2 2 3 6 6 4 5 7 8 8 7 8 6 4 4 5 4 6 7 5 7
Wind_Direction
278 277 271 267 263 257 253 251 246 243 239 228 237 240 212 192 183 180 185 161 212 173 176 170 163 149 143 125 123 119 134 91 116 102 96 140 162 173 173 173 163 170 196
289 282 278 273 264 257 249 243 240 235 232 220 223 237 223 191 171 179 169 168 167 187 167 158 157 148 144 145 144 126 121 131 116 137 128 140 162 180 163 164 168 182 193
286 278 273 268 260 250 244 239 231 230 226 217 222 226 231 201 174 182 166 174 169 172 180 163 158 152 150 154 143 131 140 133 134 129 132 158 115 147 136 125 160 197 212
289 281 275 269 260 250 240 234 226 222 216 209 210 217 212 192 174 170 169 167 160 167 178 173 162 159 157 153 142 139 145 133 125 120 113 105 121 125 107 143 188 203 228
295 289 283 276 265 249 235 222 215 211 214 205 209 225 199 185 173 155 163 155 149 145 156 166 161 161 153 150 146 150 147 122 135 118 100 133 146 159 185 160 173 158 250
305 301 292 286 280 266 212 203 201 201 198 202 217 209 170 173 153 152 147 146 157 153 147 141 138 128 131 132 139 150 147 146 128 128 125 151 162 153 140 142 127 141 252
311 306 307 306 317 322 169 169 182 174 181 163 153 135 129 131 145 140 143 150 146 153 149 136 134 131 132 131 145 146 148 137 137 139 157 155 150 171 137 139 163 164 193
329 328 327 339 11 35 66 84 113 140 131 130 110 118 122 133 134 130 129 123 125 135 139 139 144 139 136 139 132 124 121 122 119 120 131 159 138 155 152 155 161 143 43
345 342 348 352 36 52 57 75 91 99 102 113 119 118 121 129 133 130 121 123 133 117 117 123 134 131 140 136 128 130 123 118 136 132 142 147 166 161 151 114 126 113 259
351 353 0 13 49 63 63 67 73 86 93 97 93 103 116 123 129 130 125 119 114 123 117 111 124 126 133 132 130 138 142 156 144 114 92 181 187 190 185 178 144 171 171
1 7 17 25 45 64 72 72 83 86 92 92 93 88 96 105 118 124 137 130 126 121 119 119 123 134 134 130 128 127 130 133 167 149 157 145 83 110 237 177 190 181 169
15 24 30 37 44 59 80 80 82 94 96 94 95 88 79 86 108 112 103 103 116 111 114 108 116 131 138 144 130 145 140 124 113 119 109 116 163 190 235 222 205 216 217
22 31 37 43 45 46 68 81 85 89 93 97 97 100 98 107 98 91 91 92 94 92 105 124 130 132 138 147 155 159 144 120 118 113 160 181 184 192 175 192 210 206 227
34 34 38 43 48 47 49 55 70 77 99 96 91 94 95 91 85 82 86 91 94 96 106 109 122 117 107 104 86 79 90 132 157 169 174 175 145 180 207 183 196 191 227
38 41 46 49 51 57 53 53 64 56 71 95 95 101 104 89 79 103 112 110 109 109 104 91 86 83 90 77 76 78 75 96 135 167 188 196 222 205 222 186 215 215 223
42 36 29 38 42 49 59 64 61 70 72 72 77 85 76 111 115 112 108 111 116 116 72 96 91 83 88 82 89 74 45 191 240 207 217 218 265 261 255 239 197 200 235
44 34 45 47 50 59 60 74 85 61 61 60 78 93 103 111 106 106 108 104 86 69 79 74 93 97 109 119 147 168 190 188 158 29 321 266 262 265 261 243 231 220 244
52 40 55 45 56 64 72 77 83 90 84 48 50 83 94 99 100 106 114 104 70 71 92 102 108 127 142 125 93 79 60 43 36 14 355 328 334 338 342 346 334 319 327
67 47 45 54 58 70 72 70 71 76 78 74 62 58 58 90 86 83 86 86 100 96 93 84 76 78 71 68 67 64 62 53 43 54 33 42 19 38 6 354 334 341 349
84 92 73 84 61 70 66 85 83 79 77 74 75 65 30 78 68 64 56 75 77 74 77 78 66 62 67 68 67 75 81 62 60 79 63 51 19 28 39 360 358 359 327
121 101 107 78 73 77 86 94 97 93 93 78 63 77 121 97 82 66 63 50 61 70 77 82 77 76 74 84 90 86 97 90 58 52 44 23 21 21 7 10 348 338 358
116 117 95 104 105 87 90 94 99 105 94 88 64 71 82 74 75 76 72 68 54 57 53 95 93 94 99 108 128 108 86 71 42 39 21 17 46 34 20 18 357 348 332
127 119 108 85 98 107 104 92 92 92 87 82 76 78 73 81 86 82 82 72 68 71 50 69 84 72 46 78 109 128 107 152 221 189 41 15 5 354 20 324 305 313 290
134 135 124 116 109 98 100 97 95 92 101 95 88 85 92 94 95 93 84 74 73 61 54 80 92 99 71 23 342 216 211 231 200 245 158 272 288 306 310 271 259 260 265
130 129 126 136 126 121 115 108 105 102 102 109 107 99 92 97 95 88 82 74 75 76 55 53 67 72 53 7 357 343 325 322 290 244 204 201 241 249 243 243 262 266 251
131 122 124 126 119 121 123 122 118 118 115 101 96 93 104 100 98 100 95 87 80 65 56 26 12 20 8 352 323 316 308 307 288 257 231 203 221 245 217 244 265 256 264